Location: Banska Bystrica
(48.7330°N, 19.1500°E)
Time: 03:06:50
(UTC+02:00)

Tiangong 2 - Pass Details

Date: 26 May 2019
Orbit: 376 x 389 km, 42.8° (Epoch: 17 June)

Event Time Altitude Azimuth Distance (km) Brightness Sun altitude
Rises 21:48:16 0° 261° (W) 2,238 5.4 -10.2°
Reaches altitude 10° 21:50:36 10° 246° (WSW) 1,384 4.1 -10.5°
Maximum altitude 21:53:05 22° 192° (SSW) 881 2.5 -10.7°
Enters shadow 21:54:22 17° 158° (SSE) 1,035 2.6 -10.9°
